Home > Weather > Düsseldorf > Past weeks

Flag for Germany Past Weather in Düsseldorf, North Rhine-Westphalia, Germany — Yesterday and Last 2 Weeks

Now
82 °F

Sunny.


Feels Like: 85 °F
Forecast: 70 / 92 °F
Wind: 7 mph from North

Location: Duesseldorf

Current Time: Aug 26, 2016 at 8:46:05 PM

Latest Report: Aug 26, 2016 at 8:20 PM


Visibility: 10 mi

Pressure: 30.04 "Hg

Humidity: 62%

Dew Point: 68 °F

Location of DüsseldorfLocation

Past Weather in Düsseldorf — Graph

°F

Düsseldorf Temperature Yesterday

Maximum temperature yesterday: 91 °F (at 3:20 PM)
Minimum temperature yesterday: 72 °F (at 12:20 AM)
Average temperature yesterday: 81 °F

High & Low Weather Summary for the Past Weeks

 TemperatureHumidityPressure
High91 °F (Aug 25, 3:20 PM)100% (Aug 11, 8:50 PM)30.33 "Hg (Aug 11, 8:50 PM)
Low50 °F (Aug 18, 5:20 AM)26% (Aug 25, 3:20 PM)29.77 "Hg (Aug 18, 2:50 PM)
Average68 °F70%30.07 "Hg
* Reported Aug 11 7:20 PM — Aug 26 7:20 PM, Düsseldorf, Weather by CustomWeather, © 2016

Note: Actual official high and low records may vary slightly from our data, if they occured in-between our weather recording intervals... More about our weather records

Advertising

Düsseldorf Weather History for the Previous 24 Hours

Scroll right to see more
 ConditionsComfort  
Time TempWeatherWind HumidityBarometerVisibility
7:20 PM
Fri, Aug 26
86 °FSunny.7 mph52%30.01 "Hg10 mi
6:50 PM86 °FSunny.7 mph52%30.01 "Hg10 mi
6:20 PM88 °FPassing clouds.8 mph49%30.01 "HgN/A
5:50 PM88 °FPassing clouds.7 mph52%30.01 "HgN/A
5:20 PM90 °FSunny.8 mph49%30.01 "Hg10 mi
4:50 PM90 °FPassing clouds.8 mph49%30.01 "HgN/A
4:20 PM91 °FPassing clouds.8 mph44%30.01 "HgN/A
3:50 PM91 °FPassing clouds.6 mph44%30.01 "HgN/A
3:20 PM91 °FPassing clouds.7 mph46%30.01 "HgN/A
2:50 PM91 °FPassing clouds.6 mph44%30.01 "HgN/A
2:20 PM90 °FSunny.3 mph46%30.01 "Hg10 mi
1:50 PM90 °FSunny.5 mph43%30.01 "Hg10 mi
1:20 PM90 °FPassing clouds.6 mph46%30.01 "HgN/A
12:50 PM88 °FPassing clouds.5 mph46%30.01 "HgN/A
12:20 PM86 °FSunny.5 mph49%30.01 "Hg10 mi
11:50 AM86 °FPassing clouds.7 mph49%30.01 "HgN/A
11:20 AM84 °FPassing clouds.6 mph48%29.98 "HgN/A
10:50 AM82 °FPassing clouds.6 mph51%30.01 "HgN/A
10:20 AM81 °FPassing clouds.7 mph51%29.98 "HgN/A
9:50 AM79 °FPassing clouds.8 mph54%29.98 "HgN/A
9:20 AM77 °FSunny.9 mph54%29.98 "Hg10 mi
8:50 AM77 °FSunny.13 mph54%29.98 "Hg10 mi
8:20 AM75 °FSunny.10 mph57%29.98 "Hg10 mi
7:50 AM73 °FSunny.9 mph61%29.98 "Hg10 mi
7:20 AM73 °FPassing clouds.8 mph61%29.98 "HgN/A
6:50 AM72 °FClear.9 mph65%29.98 "Hg10 mi
6:20 AM73 °FClear.9 mph57%29.95 "Hg10 mi
5:50 AM72 °FClear.10 mph65%29.95 "Hg10 mi
5:20 AM73 °FClear.13 mph61%29.95 "Hg10 mi
4:50 AM73 °FClear.13 mph61%29.95 "Hg10 mi
4:20 AM73 °FClear.13 mph61%29.95 "Hg10 mi
3:50 AM75 °FClear.13 mph57%29.95 "Hg10 mi
3:20 AM75 °FClear.13 mph57%29.95 "Hg10 mi
2:50 AM75 °FClear.13 mph57%29.95 "Hg10 mi
2:20 AM75 °FClear.13 mph57%29.95 "Hg10 mi
1:50 AM77 °FClear.13 mph54%29.95 "Hg10 mi
1:20 AM77 °FClear.13 mph54%29.95 "Hg10 mi
12:50 AM77 °FClear.13 mph54%29.95 "Hg10 mi
12:20 AM79 °FClear.13 mph51%29.95 "Hg10 mi
11:50 PM
Thu, Aug 25
79 °FClear.12 mph51%29.95 "Hg10 mi
11:20 PM81 °FClear.14 mph48%29.95 "Hg10 mi
10:50 PM81 °FClear.13 mph48%29.95 "Hg10 mi
10:20 PM81 °FClear.12 mph48%29.95 "Hg10 mi
9:50 PM81 °FPassing clouds.6 mph48%29.95 "HgN/A
9:20 PM79 °FSunny.6 mph54%29.95 "Hg10 mi
8:50 PM79 °FPassing clouds.5 mph54%29.95 "HgN/A
8:20 PM84 °FSunny.6 mph43%29.95 "Hg10 mi
Weather by CustomWeather, © 2016

See weather overviewHow to use our weather pages